Flag for Germany Weather past 2 weeks in Garbsen, Lower Saxony, Germany

Now
34 °F

Sunny.


Feels Like: 29 °F
Forecast: 37 / 58 °F
Wind: 6 mph from West

Location: Hannover

Current Time: Apr 28, 2015 at 8:29:58 AM

Latest Report: Apr 28, 2015 at 7:50 AM


Visibility: 10 mi

Pressure: 29.89 "Hg

Humidity: 93%

Dew point: 32 °F

Location of GarbsenLocation

Historic Weather in Garbsen — Graph

°F

Garbsen temperature yesterday

Maximum temperature yesterday: 52 °F (at 12:20 AM)
Minimum temperature yesterday: 41 °F (at 11:50 PM)
Average temperature yesterday: 48 °F

Past Weeks' High & Low Weather Summary

 TemperatureHumidityPressure
High72 °F (Apr 15, 3:20 PM)100% (Apr 17, 6:50 AM)30.42 "Hg (Apr 17, 6:50 AM)
Low30 °F (Apr 28, 5:20 AM)32% (Apr 20, 4:20 PM)29.62 "Hg (Apr 27, 3:20 AM)
Average50 °F71%30.08 "Hg
* Reported Apr 13 7:20 AM — Apr 28 7:20 AM, Garbsen, Weather by CustomWeather, © 2015

Note: Actual official high and low records may vary slightly from our data, if they occured in-between our weather recording intervals... More about our weather records

Advertising

Garbsen weather history for previous 24 hours

 ConditionsComfort  
Time TempWeatherWind HumidityBarometerVisibility
7:20 AM
Tue, Apr 28
34 °FSunny.6 mph93%29.89 "Hg10 mi
6:50 AM32 °FClear.6 mph93%29.89 "Hg10 mi
6:20 AM30 °FClear.6 mph93%29.86 "Hg10 mi
5:20 AM30 °FPassing clouds.5 mph100%29.86 "HgN/A
4:50 AM32 °FPassing clouds.6 mph93%29.86 "HgN/A
4:20 AM34 °FPassing clouds.6 mph87%29.83 "HgN/A
3:50 AM34 °FPassing clouds.6 mph87%29.83 "HgN/A
3:20 AM36 °FPassing clouds.7 mph87%29.83 "HgN/A
2:50 AM34 °FPassing clouds.6 mph93%29.83 "HgN/A
2:20 AM36 °FPassing clouds.6 mph81%29.83 "HgN/A
1:50 AM37 °FPassing clouds.6 mph81%29.83 "HgN/A
1:20 AM39 °FPassing clouds.6 mph75%29.83 "HgN/A
12:50 AM41 °FPassing clouds.6 mph76%29.83 "HgN/A
12:20 AM41 °FQuite cool.8 mph76%29.83 "HgN/A
11:50 PM
Mon, Apr 27
41 °FPassing clouds.9 mph76%29.83 "HgN/A
11:20 PM43 °FPartly cloudy.9 mph71%29.80 "HgN/A
10:50 PM43 °FPartly cloudy.10 mph76%29.80 "HgN/A
10:20 PM45 °FPassing clouds.9 mph76%29.80 "HgN/A
9:50 PM46 °FPartly cloudy.10 mph71%29.80 "HgN/A
9:20 PM46 °FPartly sunny.5 mph66%29.80 "HgN/A
8:50 PM46 °FBroken clouds.6 mph62%29.77 "HgN/A
8:20 PM48 °FBroken clouds.6 mph58%29.77 "HgN/A
7:50 PM48 °FPartly sunny.8 mph66%29.77 "HgN/A
7:20 PM50 °FPassing clouds.5 mph67%29.74 "HgN/A
6:50 PM50 °FPassing clouds.7 mph62%29.74 "HgN/A
6:20 PM50 °FPartly sunny.8 mph62%29.74 "HgN/A
5:50 PM50 °FPartly sunny.9 mph67%29.74 "HgN/A
5:20 PM50 °FPartly sunny.9 mph67%29.74 "HgN/A
4:50 PM50 °FPartly sunny.9 mph67%29.74 "HgN/A
4:20 PM50 °FPartly sunny.12 mph62%29.74 "HgN/A
3:50 PM48 °FPartly sunny.12 mph71%29.74 "HgN/A
3:20 PM48 °FBroken clouds.7 mph76%29.74 "HgN/A
2:50 PM48 °FBroken clouds.7 mph82%29.74 "HgN/A
2:20 PM46 °FPartly sunny.10 mph82%29.74 "HgN/A
1:50 PM46 °FMostly cloudy.8 mph87%29.74 "HgN/A
1:20 PM46 °FMostly cloudy.10 mph93%29.74 "HgN/A
12:50 PM45 °FMostly cloudy.10 mph93%29.74 "HgN/A
12:20 PM45 °FMostly cloudy.10 mph93%29.71 "HgN/A
11:50 AM45 °FMostly cloudy.10 mph93%29.71 "HgN/A
11:20 AM45 °FMostly cloudy.12 mph93%29.71 "HgN/A
10:50 AM45 °FLight rain. Mostly cloudy.10 mph93%29.68 "HgN/A
10:20 AM46 °FLight rain. Mostly cloudy.9 mph93%29.68 "HgN/A
9:50 AM45 °FLight rain. Mostly cloudy.8 mph100%29.68 "HgN/A
9:20 AM46 °FLight rain. Mostly cloudy.10 mph93%29.65 "HgN/A
8:50 AM46 °FLight rain. Mostly cloudy.8 mph93%29.65 "HgN/A
8:20 AM46 °FLight rain. Fog.9 mph93%29.65 "Hg3 mi
Weather by CustomWeather, © 2015

See weather overviewHow to use our weather pages